This demonstration page uses our WeatherBlox Daily Observations layout. Learn more.

Left ArrowRight Arrow

Hourly Observations for February 3, 2021

Temp ( °F °C ) Dew Point ( °F °C ) Humidity (%) Winds ( mph kmh ) Pressure ( in mb ) Visibility ( mi km ) Precip ( " mm )
12:54 am 00:54 Clear with Mist and Fog 17 -8.3 15 -9.4 92 92 NNW 3 6 30.09 1019 4 6.43736 0 0
1:54 am 01:54 Clear with Mist and Fog 15 -9.4 12 -11.1 88 88 Calm 30.06 1018 5 8.0467 0 0
2:54 am 02:54 Clear with Mist and Fog 16 -8.9 13 -10.6 88 88 NNW 5 7 30.05 1018 5 8.0467 0 0
3:47 am 03:47 Clear with Mist and Fog 13 -10.6 10 -12.2 88 88 N 3 6 30.09 1019 2.5 4.02335 0 0
3:54 am 03:54 Clear with Mist and Fog 13 -10.6 10 -12.2 88 88 NW 3 6 30.03 1017 4 6.43736 0 0
4:54 am 04:54 Clear with Mist and Fog 12 -11.1 9 -12.8 87 87 Calm 30.01 1016 3 4.82802 0 0
5:54 am 05:54 Hazy 12 -11.1 7 -13.9 80 80 Calm 29.98 1015 5 8.0467 0 0
6:54 am 06:54 Clear with Mist and Fog 12 -11.1 8 -13.3 84 84 Calm 29.96 1015 4 6.43736 0 0
7:54 am 07:54 Sunny 12 -11.1 8 -13.3 84 84 Calm 29.97 1015 7 11.26538 0 0
8:54 am 08:54 Sunny 16 -8.9 13 -10.6 88 88 Calm 29.95 1014 7 11.26538 0 0
9:54 am 09:54 Sunny 29 -1.7 24 -4.4 82 82 S 8 13 29.92 1013 8 12.87472 0 0
10:54 am 10:54 Sunny 38 3.3 28 -2.2 68 68 S 12 19 29.89 1012 10 16.0934 0 0
11:54 am 11:54 Sunny 41 5 29 -1.7 62 62 S 15 24 29.83 1010 10 16.0934 0 0
12:54 pm 12:54 Sunny 42 5.6 30 -1.1 62 62 S 13 20 29.82 1010 10 16.0934 0 0
1:54 pm 13:54 Sunny 41 5 30 -1.1 65 65 S 16 26 29.77 1008 10 16.0934 0 0
2:54 pm 14:54 Sunny 42 5.6 31 -0.6 65 65 S 10 17 29.74 1007 10 16.0934 0 0
3:54 pm 15:54 Sunny 42 5.6 32 0 68 68 S 12 19 29.7 1006 10 16.0934 0 0
4:54 pm 16:54 Sunny 43 6.1 32 0 65 65 SSE 6 9 29.66 1005 10 16.0934 0 0
5:54 pm 17:54 Clear 44 6.7 33 0.6 65 65 SSE 7 11 29.64 1004 10 16.0934 0 0
6:54 pm 18:54 Clear 40 4.4 32 0 73 73 Calm 29.66 1005 10 16.0934 0 0
7:54 pm 19:54 Clear 34 1.1 29 -1.7 82 82 Calm 29.65 1004 10 16.0934 0 0
8:54 pm 20:54 Clear 35 1.7 29 -1.7 78 78 S 3 6 29.64 1004 10 16.0934 0 0
9:54 pm 21:54 Clear 37 2.8 31 -0.6 79 79 S 6 9 29.6 1002 10 16.0934 0 0
10:54 pm 22:54 Clear 35 1.7 29 -1.7 78 78 Calm 29.6 1002 10 16.0934 0 0
11:54 pm 23:54 Partly Cloudy 30 -1.1 26 -3.3 85 85 N 10 17 29.62 1003 10 16.0934 0 0

Powered by AerisWeather